Location: Newark
(51.3000°N, 178.2000°W)
Time: 00:29:46
(UTC+00:00)

Tiangong - Pass Details

Date: 26 June 2021
Orbit: 373 x 386 km, 41.5° (Epoch: 02 August)

Event Time Altitude Azimuth Distance (km) Brightness Sun altitude
Exits shadow 13:50:28 13° 167° (SSE) 1,227 3.2 -11.2°
Drops below altitude 10° 13:51:45 10° 142° (SE) 1,387 3.6 -11.1°
Sets 13:54:39 0° 113° (ESE) 2,244 5.0 -10.9°
